Whiteman AFB, MO

7:47 AM CDT on September 26, 2017 (GMT -0500)
Whiteman Air Force Base

Weather History for KSZL - April, 2014

Change the Weather History Date:

Friday, April 4, 2014

  Actual Average Record
Temperature  
Mean Temperature 42 °F -  
Max Temperature 44 °F 60 °F 80 °F (2005)
Min Temperature 38 °F 40 °F 26 °F (2002)
Degree Days  
Heating Degree Days 23    
Moisture  
Dew Point 29 °F    
Average Humidity 63    
Maximum Humidity 81    
Minimum Humidity 52    
Precipitation  
Precipitation 0.00 in - - ()
Sea Level Pressure  
Sea Level Pressure 30.00 in    
Wind  
Wind Speed 16 mph (NW)    
Max Wind Speed 24 mph    
Max Gust Speed 38 mph    
Visibility 10 miles    
Events      
Averages and records for this station are not official NWS values.
T = Trace of Precipitation, MM = Missing Value Source: NWS Daily Summary

Daily Weather History Graph

Daily Weather History Graph

Search for Another Location

Airport or City:

Trip Planner

Search our weather history database for the weather conditions in past years. The results will help you decide how hot, cold, wet, or windy it might be!

Date:

Astronomy

Apr. 04, 2014 Rise Set
Actual Time 6:54 AM CDT 7:40 PM CDT
Civil Twilight 6:27 AM CDT 8:07 PM CDT
Nautical Twilight 5:55 AM CDT 8:39 PM CDT
Astronomical Twilight 5:22 AM CDT 9:12 PM CDT
Moon 10:14 AM CDT (4/4) No Moon Set
Length of Visible Light 13h 40m
Length of Day
12h 46m
Waxing Crescent, 25% of the Moon is Illuminated
Apr 4
Waxing Crescent
Apr 7
First Quarter
Apr 15
Full
Apr 22
Last Quarter
Apr 29
New

Hourly Weather History & Observations

Time (CDT) Temp. Windchill Dew Point Humidity Pressure Visibility Wind Dir Wind Speed Gust Speed Precip Events Conditions
12:18 AM 46.4 °F 40.1 °F 41.0 °F 81% 29.73 in 10.0 mi West 15.0 mph 21.9 mph N/A   Overcast
12:58 AM 44.6 °F 35.9 °F 37.6 °F 76% 29.73 in 10.0 mi WNW 23.0 mph 33.4 mph N/A   Overcast
1:58 AM 42.1 °F 33.6 °F 33.8 °F 72% 29.77 in 10.0 mi WNW 18.4 mph 28.8 mph N/A   Overcast
2:58 AM 40.3 °F 29.9 °F 31.8 °F 72% 29.78 in 10.0 mi WNW 24.2 mph 36.8 mph N/A   Overcast
3:58 AM 39.2 °F 29.8 °F 28.8 °F 66% 29.82 in 10.0 mi WNW 18.4 mph 38.0 mph N/A   Overcast
4:58 AM 38.8 °F 28.8 °F 27.5 °F 64% 29.84 in 10.0 mi NW 20.7 mph 32.2 mph N/A   Overcast
5:13 AM 39.2 °F 30.8 °F 28.4 °F 65% 29.85 in 10.0 mi WNW 15.0 mph 25.3 mph N/A   Overcast
5:58 AM 38.8 °F 29.4 °F 28.0 °F 65% 29.88 in 10.0 mi NW 18.4 mph 27.6 mph N/A   Overcast
6:58 AM 38.8 °F 28.0 °F 27.7 °F 64% 29.91 in 10.0 mi NW 24.2 mph 29.9 mph N/A   Overcast
7:58 AM 38.7 °F 29.5 °F 27.7 °F 65% 29.95 in 10.0 mi WNW 17.3 mph 23.0 mph N/A   Overcast
8:58 AM 38.8 °F 28.0 °F 27.5 °F 64% 29.98 in 10.0 mi WNW 24.2 mph 29.9 mph N/A   Overcast
9:58 AM 38.8 °F 29.1 °F 28.4 °F 66% 30.02 in 10.0 mi NW 19.6 mph - N/A   Overcast
10:58 AM 40.3 °F 32.2 °F 29.1 °F 64% 30.05 in 10.0 mi NW 15.0 mph - N/A   Overcast
11:58 AM 41.2 °F 33.7 °F 28.9 °F 62% 30.06 in 10.0 mi WNW 13.8 mph 21.9 mph N/A   Overcast
12:58 PM 42.8 °F 35.1 °F 29.3 °F 59% 30.08 in 10.0 mi WNW 16.1 mph 24.2 mph N/A   Overcast
1:38 PM 42.8 °F 35.8 °F 28.4 °F 57% 30.06 in 10.0 mi NW 13.8 mph - N/A   Overcast
1:58 PM 42.1 °F 33.9 °F 28.4 °F 58% 30.09 in 10.0 mi WNW 17.3 mph - N/A   Overcast
2:58 PM 44.6 °F 39.2 °F 28.4 °F 53% 30.08 in 10.0 mi WNW 10.4 mph - N/A   Overcast
3:58 PM 44.4 °F 37.5 °F 27.7 °F 52% 30.09 in 10.0 mi WNW 15.0 mph 24.2 mph N/A   Overcast
4:58 PM 44.4 °F 37.5 °F 28.9 °F 55% 30.11 in 10.0 mi NW 15.0 mph - N/A   Overcast
5:58 PM 43.3 °F 36.1 °F 28.0 °F 55% 30.12 in 10.0 mi WNW 15.0 mph - N/A   Overcast
6:58 PM 43.2 °F 37.9 °F 27.7 °F 54% 30.14 in 10.0 mi NW 9.2 mph - N/A   Overcast
7:58 PM 42.4 °F 38.8 °F 27.5 °F 56% 30.14 in 10.0 mi WNW 5.8 mph - N/A   Overcast
8:58 PM 42.1 °F 37.7 °F 27.9 °F 57% 30.17 in 10.0 mi NNW 6.9 mph - N/A   Overcast
9:58 PM 40.3 °F 37.1 °F 29.1 °F 64% 30.19 in 10.0 mi North 4.6 mph - N/A   Scattered Clouds
10:58 PM 40.3 °F 38.2 °F 28.6 °F 63% 30.19 in 10.0 mi North 3.5 mph - N/A   Mostly Cloudy
11:58 PM 39.6 °F - 29.3 °F 67% 30.19 in 10.0 mi North 2.3 mph - N/A   Overcast